Location: Bukov�
(49.6150°N, 14.9491°E)
Time: 23:30:54
(UTC+00:00)

Daily predictions for brighter satellites

Satellite Brightness Start Highest point End
(mag) Time Altitude Azimuth Time Altitude Azimuth Time Altitude Azimuth
Cosmos 1975 Rocket 3.3 17:29:40 10° N 17:33:52 46° ENE 17:38:01 10° SSE
COSMO-SKYMED 1 3.1 17:32:41 10° N 17:37:01 67° WNW 17:41:20 10° SSW
Cosmos 2084 Rocket 3.7 17:32:57 10° NW 17:37:24 83° SW 17:41:55 10° SE
Cosmos 1689 Rocket 4.3 17:37:20 10° N 17:40:05 32° WNW 17:42:46 10° SW
H-2A R/B 2.1 17:36:19 10° SSE 17:41:11 60° ENE 17:46:12 10° N
ARGOS 3.4 17:36:26 10° SE 17:41:34 49° ENE 17:46:44 10° N
CZ-2C R/B 3.8 17:38:25 10° NE 17:42:42 22° E 17:46:59 10° SE
CENTAUR R/B 3.8 17:35:56 10° NW 17:43:06 42° NNE 17:51:07 10° E
ATLAS 5 CENTAUR R/B 2.5 17:41:31 10° WNW 17:44:08 61° SW 17:51:08 10° SE
Resurs 01 Rocket 3.7 17:42:49 10° ENE 17:44:22 12° NE 17:45:55 10° NE
Cosmos 1707 3.5 17:41:51 10° N 17:45:20 31° ENE 17:48:47 10° SE
Cosmos 1743 3.7 17:43:57 10° SSW 17:47:42 53° WNW 17:51:28 10° N
Iridium 4 Rocket 3.5 17:43:29 10° S 17:48:24 83° E 17:53:51 10° N
ATLAS 3B R/B 4.1 17:43:03 10° NW 17:48:35 26° NNE 17:54:16 10° ENE
SJ-6B 3.9 17:46:42 10° ESE 17:49:42 23° ENE 17:52:44 10° NNE
Sich 1 Rocket 4.1 17:45:43 10° SSE 17:49:51 38° E 17:54:03 10° NNE
USA 238 DEB 4.3 17:44:17 10° NW 17:51:11 50° NE 17:58:11 11° ESE
USA 238 4.3 17:44:23 10° NW 17:51:17 49° NE 17:58:16 11° ESE
ATLAS CENTAUR R/B 3.6 17:50:58 10° W 17:54:04 22° NW 17:57:04 10° NNE
Cosmos 2263 Rocket 2.1 17:51:00 10° SSW 17:56:32 70° ESE 18:02:06 10° NNE
Meteor 2-9 Rocket 4.3 17:53:36 10° S 17:59:27 78° E 18:05:15 10° NNE
USA 102 4.3 17:54:29 10° SSE 18:00:37 80° WSW 18:04:01 10° NNW
SL-08 RB Rocket 4.0 17:56:49 10° SE 18:01:15 48° ENE 18:05:39 10° N
CZ-2C R/B 3.5 17:58:59 10° S 18:04:12 73° WSW 18:09:46 10° NNW
Cosmos 1844 Rocket 3.8 18:00:24 10° SE 18:04:18 20° E 18:08:12 10° NE
SJ 16-02 2.5 18:00:58 10° SW 18:05:12 47° WNW 18:09:27 10° NNE
Cosmos 990 Rocket 4.1 18:00:20 10° SSW 18:05:28 82° WNW 18:10:40 10° NNE
Cosmos 2227 4.2 18:00:22 10° SSW 18:06:07 86° ESE 18:11:52 10° NNE
Cosmos 1464 Rocket 4.2 18:00:38 10° SSE 18:06:26 47° E 18:12:17 10° NNE
ISS -2.2 18:04:40 10° S 18:07:08 19° SE 18:08:14 17° ESE
Abrixas rocket 2.0 18:06:44 10° WSW 18:09:31 55° SSE 18:11:15 20° E
Cosmos 1943 3.7 18:04:29 10° NW 18:10:04 63° WSW 18:15:39 10° SSE
Okean 2 Rocket 3.6 18:05:54 10° SSE 18:10:04 39° E 18:14:16 10° NNE
Lacrosse 5 rocket 2.5 18:10:14 10° W 18:14:21 45° NNW 18:18:40 10° NE
Meteor 1-12 Rocket 4.5 18:10:04 10° SSE 18:15:45 51° E 18:21:22 10° NNE
Ariane Rocket 3.1 18:10:57 10° SSE 18:15:54 58° ENE 18:20:55 10° N
Cosmos 1437 4.0 18:14:58 10° NNW 18:17:49 39° W 18:20:38 10° SSW
NOSS 3-2 (A) 4.1 18:12:25 10° NW 18:19:42 68° NE 18:26:32 16° ESE
NOSS 2-2 (C) 3.4 18:17:56 10° SSW 18:21:16 42° SE 18:24:58 10° NE
USA 116 4.4 18:18:42 10° N 18:21:58 51° WNW 18:25:32 10° SSW
Cosmos 1833 Rocket 4.5 18:19:11 10° N 18:22:56 18° NE 18:26:05 12° ENE
Resurs 1-3 4.4 18:20:34 19° ESE 18:23:01 32° ENE 18:26:56 10° N
Cosmos 1300 Rocket 3.7 18:19:06 10° S 18:23:20 51° E 18:27:39 10° NNE
SPOT 3 Rocket 4.2 18:22:58 18° ESE 18:26:13 36° ENE 18:30:55 10° N
MetOp-A 4.2 18:22:29 10° SSE 18:27:43 59° ENE 18:33:00 10° N
Cosmos 1898 Rocket 4.2 18:27:35 10° SW 18:32:40 56° WNW 18:37:47 10° NNE
Cosmos 1867 3.8 18:28:24 10° NW 18:33:51 68° SW 18:38:36 14° SSE
Cosmos 1891 Rocket 4.4 18:27:59 10° S 18:34:07 77° E 18:40:11 10° NNE
Cosmos 1536 Rocket 3.6 18:33:33 10° N 18:37:58 64° ENE 18:41:16 18° SSE
USA 234 3.7 18:34:56 10° ENE 18:40:57 38° SE 18:46:57 10° SSW
Cosmos 1626 3.7 18:40:49 10° NNE 18:43:19 20° ENE 18:43:19 20° ENE
Meteor 2-5 Rocket 4.2 18:40:13 10° N 18:45:32 42° ENE 18:48:05 27° ESE
DMSP B5D2-2 4.1 18:40:44 10° NNE 18:45:59 58° E 18:51:11 10° S
CREW DRAGON DEMO-1 DEB 3.1 18:44:16 10° WNW 18:47:16 57° N 18:47:59 43° ENE
Cosmos 2151 Rocket 3.5 18:46:47 10° S 18:51:13 72° E 18:55:42 10° NNE
USA 186 2.7 18:48:48 13° S 18:51:24 47° W 18:54:33 10° NNW
Cosmos 372 Rocket 3.9 18:46:26 10° SSW 18:51:42 84° ESE 18:56:57 10° NNE
Cosmos 1025 Rocket 3.2 18:47:36 10° NNW 18:51:58 72° W 18:56:09 11° S
NOSS 3-2 (C) 4.1 18:46:30 10° NW 18:53:49 70° NE 18:58:44 27° ESE
Cosmos 2150 Rocket 4.1 18:48:51 10° S 18:54:07 58° ESE 18:59:28 10° NNE
Nadezhda 4 Rocket 3.9 18:52:33 10° N 18:58:44 89° W 19:04:42 11° S
Cosmos 1805 3.8 19:00:43 38° ENE 19:00:43 38° ENE 19:03:53 10° NNE
OBJECT-B 0.6 19:01:22 65° SSE 19:01:47 84° ENE 19:05:03 10° N
Cosmos 2082 Rocket 3.9 18:58:50 10° N 19:02:50 19° NE 19:04:43 17° ENE
MOS 1 Rocket 4.5 18:58:39 10° N 19:02:55 41° WNW 19:07:00 10° SW
Cosmos 2034 Rocket 4.0 18:56:54 10° S 19:03:17 85° E 19:09:40 10° N
Cosmos 1125 Rocket 3.7 19:00:01 10° S 19:05:05 49° ESE 19:10:13 10° NNE
FREGAT/IRIS 3.6 19:05:32 32° SW 19:06:01 36° W 19:08:28 10° NNW
Exosat Rocket 3.7 19:01:07 10° S 19:06:28 47° ESE 19:11:15 10° NE
Cosmos 1674 2.6 19:04:55 10° N 19:08:48 88° E 19:09:42 51° SSE
COSMOS 2406 4.0 19:05:36 10° NNW 19:10:51 36° NE 19:12:17 32° E
Meteor 1-24 Rocket 3.9 19:07:26 10° N 19:12:47 51° ENE 19:14:10 41° ESE
SL-14 R/B 4.1 19:13:09 10° N 19:16:10 37° NE 19:16:10 37° NE
ERS-1 Rocket 4.3 19:17:24 24° ENE 19:17:24 24° ENE 19:21:23 10° N
NOSS 2-2 (E) 4.1 19:15:09 10° WSW 19:18:38 49° NW 19:22:46 10° NE
Resurs 01 Rocket 1.5 19:19:16 57° SE 19:20:05 74° ENE 19:24:33 10° N
H-2A R/B 4.4 19:17:20 10° SW 19:21:03 21° W 19:24:51 10° NW
ATLAS 2AS CENTAUR R/B 3.7 19:16:24 10° S 19:24:47 32° E 19:30:15 10° NE
CZ-2C R/B 3.1 19:17:57 10° N 19:23:25 66° WNW 19:28:57 10° SSW
SJ-6B 4.3 19:21:47 16° SSW 19:24:14 32° W 19:27:39 10° NNW
Landsat 7 4.2 19:25:47 46° ENE 19:25:50 46° ENE 19:30:24 10° N
Lacrosse 4 Rocket 3.4 19:23:15 10° N 19:25:51 16° NE 19:25:54 16° NE
KORONAS-FOTON 4.2 19:22:31 10° NNW 19:26:24 62° W 19:27:14 48° SSW
NOSS 2-2 (D) 4.0 19:23:36 10° WSW 19:27:04 51° NW 19:31:07 10° NE
Cosmos 1766 3.9 19:33:40 45° NNE 19:33:40 45° NNE 19:36:31 10° NNE
SPOT 1/Viking Rocket 3.9 19:33:46 46° ENE 19:33:54 46° ENE 19:38:50 10° N
CENTAUR R/B 3.1 19:26:42 10° NW 19:34:42 85° SW 19:38:33 39° SE
Cosmos 1844 3.5 19:29:52 10° SSW 19:35:33 75° ESE 19:41:13 10° NNE
IGS 5A 4.0 19:37:08 46° NNE 19:37:08 46° NNE 19:40:24 10° N
Cosmos 1634 Rocket 3.8 19:34:24 38° S 19:36:53 72° E 19:43:04 10° NNE
ARIANE 5 R/B 2.7 19:37:43 63° NE 19:37:43 63° NE 19:41:41 10° N
ATLAS 3B R/B 3.1 19:34:10 10° NW 19:40:49 52° NE 19:42:49 40° E
Cosmos 1269 Rocket 3.9 19:35:34 10° NNW 19:40:55 78° ENE 19:41:30 69° ESE
Cosmos 2263 Rocket 4.3 19:36:18 10° W 19:40:59 27° NW 19:45:43 10° NNE
Cosmos 2285 Rocket 3.8 19:35:29 10° SSW 19:41:46 81° ESE 19:48:10 10° NNE
MetOp-B 4.0 19:41:10 63° SE 19:42:01 81° ENE 19:47:25 10° NNW
USA 238 DEB 4.2 19:35:21 10° NW 19:42:23 57° WSW 19:45:37 34° S
USA 238 4.2 19:35:27 10° NW 19:42:29 58° WSW 19:45:43 34° S
ISS -1.4 19:40:12 10° WSW 19:41:13 18° WSW 19:41:13 18° WSW
Cosmos 1844 Rocket 2.7 19:41:58 10° SSW 19:47:32 76° WNW 19:53:10 10° NNE
Spot 2 Rocket 3.4 19:48:07 67° ENE 19:48:07 67° ENE 19:53:03 10° N
Okean 1 Rocket 3.5 19:51:22 47° SW 19:52:20 60° WNW 19:56:48 10° N
Lacrosse 5 rocket 3.0 19:50:22 10° WNW 19:54:20 31° N 19:55:13 29° NNE
Cosmos 2026 Rocket 4.3 19:58:21 10° NNW 20:04:37 63° W 20:06:55 39° SSW
CZ-2C R/B 4.3 20:00:23 10° N 20:04:42 52° WNW 20:05:30 46° WSW
Meteor 2-19 Rocket 4.3 19:59:17 10° N 20:05:27 75° ENE 20:05:39 74° E
Cosmos 1833 Rocket 2.8 20:02:23 10° NNW 20:07:46 63° NE 20:07:46 63° NE
Cosmos 2251 Rocket 4.3 20:08:26 10° NNW 20:12:49 44° NNE 20:12:49 44° NNE
Terra 3.1 20:19:13 33° NNE 20:19:13 33° NNE 20:22:08 10° N
Cosmos 1626 4.2 20:15:40 10° NNW 20:17:51 27° NW 20:17:51 27° NW
Cosmos 2279 Rocket 3.9 20:20:51 81° SSW 20:21:12 87° W 20:27:31 10° N
USA 234 3.2 20:19:23 19° ENE 20:24:23 84° NNW 20:30:57 10° WSW
SPOT 5 3.7 20:40:09 52° NNW 20:40:09 52° NNW 20:44:08 10° NNW
Cosmos 2082 Rocket 2.8 20:42:16 10° NNW 20:46:33 52° N 20:46:33 52° N
COSMOS 2406 4.1 20:49:53 10° NW 20:54:20 43° W 20:54:20 43° W
ERS-1 Rocket 4.1 20:57:24 40° NW 20:57:24 40° NW 21:00:50 10° NNW
Resurs 01 Rocket 4.2 20:56:51 14° W 20:57:06 14° W 20:59:32 10° NW
Lacrosse 4 Rocket 4.0 21:01:04 10° NNW 21:02:11 18° NNW 21:02:11 18° NNW
Cosmos 2266 Rocket 4.4 21:00:37 10° NNW 21:05:34 55° NW 21:05:34 55° NW
ATLAS 2AS CENTAUR R/B 3.1 21:11:59 56° WSW 21:13:53 76° NW 21:21:45 10° NE
Cosmos 2278 Rocket 3.8 21:22:33 28° NNE 21:22:33 28° NNE 21:25:12 10° NNE
CENTAUR R/B 4.5 21:18:13 10° WNW 21:24:47 27° WSW 21:25:44 26° WSW
ATLAS 3B R/B 3.5 21:25:00 10° NW 21:30:03 43° W 21:30:03 43° W
Lacrosse 5 rocket 4.3 21:29:53 10° NW 21:30:50 16° NW 21:30:50 16° NW
Terra 4.4 21:58:06 17° NW 21:58:06 17° NW 21:59:29 10° NW
USA 234 3.9 22:00:50 10° ENE 22:07:05 50° N 22:13:21 10° W
Cosmos 1943 Rocket 4.3 22:35:46 20° NE 22:35:46 20° NE 22:37:21 10° NNE
COSMOS 2455 4.4 22:35:51 30° NNE 22:35:51 30° NNE 22:38:58 10° NNE
Cosmos 2369 Rocket 4.2 22:59:19 22° NE 22:59:19 22° NE 23:01:15 10° NNE
CZ-4C R/B 4.0 23:02:01 30° NNE 23:02:01 30° NNE 23:05:29 10° NE
Cosmos 2278 Rocket 4.4 23:04:23 19° NW 23:04:41 19° NW 23:08:36 10° N
ATLAS 2AS CENTAUR R/B 4.3 22:59:08 11° W 23:06:05 35° NNW 23:13:02 10° NE
Cosmos 2227 Rocket 4.0 23:38:31 10° NNW 23:43:12 25° NE 23:43:29 25° NE
USA 234 3.9 23:43:15 10° E 23:49:31 50° N 23:55:47 10° WNW
